Weather in Aktobe

Kazakhstan     50˚18′01″N   57˚09′16″E
temp.,
°C
wind,
m/s
gust,
m/s
humid.,
%
clouds,
%
prec.,
mm/h
press.,
hPa
HPBL,
m
3 december, thu
thu323:00−17˚nne33910 0.0 104128
02:00−18˚n33920 0.0 104026
05:00−18˚n34920 0.0 104049
08:00−18˚n45920 0.0 104073
11:00−15˚nnw36900 0.0 1040186
14:00−12˚n48850 0.0 1039303
17:00−14˚nnw45870 0.0 103962
20:00−15˚nnw34850 0.0 103948
4 december, fri
fri423:00−15˚n34850 0.0 103937
02:00−15˚n34830 0.0 103928
05:00−15˚n34820 0.0 104035
08:00−16˚n33810 0.0 104024
11:00−14˚n33830 0.0 104182
14:00−11˚n35820 0.0 1040186
17:00−14˚n33820 0.0 104123
20:00−15˚n23800 0.0 104120
5 december, sat
sat523:00−16˚nne22794 0.0 104120
02:00−15˚n12842 0.0 104120
05:00−15˚nne22901 0.0 104120
08:00−15˚n239016 0.0 104120
11:00−13˚nne23888 0.0 104162
14:00−11˚ne35890 0.0 1040281
17:00−13˚ne33920 0.0 104023
20:00−15˚ene23915 0.0 104121
6 december, sun
sun623:00−16˚ene23922 0.0 104121
02:00−17˚ene23920 0.0 104220
05:00−17˚ene22920 0.0 104220
08:00−17˚ne23910 0.0 104220
11:00−15˚ne23910 0.0 104271
14:00−12˚ne12870 0.0 1042168
17:00−15˚n22910 0.0 104020
20:00−16˚nne22920 0.0 104020
7 december, mon
mon723:00−16˚n12930 0.0 104020
02:00−16˚n12940 0.0 103920
05:00−16˚n22950 0.0 103820
08:00−17˚nnw129625 0.0 103720
11:00−15˚nw129444 0.0 103732
14:00−12˚wnw22920 0.0 1036137
17:00−15˚nw22950 0.0 103620
20:00−17˚wnw12979 0.0 103620